Tracking 23114 objects as of 16-May-2021
HD Live streaming from Space Station
objects crossing your sky now

STARLINK-2436

Track STARLINK-2436 now!
10-day predictions
STARLINK-2436 is classified as:


NORAD ID: 48101
Int'l Code: 2021-027K
Perigee: 354.8 km
Apogee: 359.0 km
Inclination: 53.0 °
Period: 91.5 minutes
Semi major axis: 6727 km
RCS: Unknown
Launch date: April 7, 2021
Source: United States (US)
Launch site: AIR FORCE EASTERN TEST RANGE (AFETR)
aabbcc
Your satellite tracking list
Your tracking list is empty




NASA's NSSDC Master Catalog

Two Line Element Set (TLE):
1 48101U 21027K   21136.58334491  .00014929  00000-0  11055-3 0  9996
2 48101  53.0469 147.0416 0003152   9.9906 170.6794 15.73205490  1821
Source of the keplerian elements: AFSPC